Weather History for KOEB - March, 2014

Change the Weather History Date:

Monday, March 31, 2014

  Actual Average (KJYM) Record (KJYM)
Temperature  
Mean Temperature 46 °F -  
Max Temperature 60 °F 51 °F 79 °F (1986)
Min Temperature 31 °F 30 °F 9 °F (1969)
Degree Days  
Heating Degree Days 20    
Moisture  
Dew Point 30 °F    
Average Humidity 56    
Maximum Humidity 88    
Minimum Humidity 31    
Precipitation  
Precipitation 0.00 in - - ()
Sea Level Pressure  
Sea Level Pressure 30.07 in    
Wind  
Wind Speed 6 mph (SSE)    
Max Wind Speed 18 mph    
Max Gust Speed 26 mph    
Visibility 10 miles    
Events      
Averages and records for this station are not official NWS values.
T = Trace of Precipitation, MM = Missing Value Source: NWS Daily Summary

Daily Weather History Graph

Daily Weather History Graph

Search for Another Location

Airport or City:

Trip Planner

Search our weather history database for the weather conditions in past years. The results will help you decide how hot, cold, wet, or windy it might be!

Date:

Astronomy

Mar. 31, 2014 Rise Set
Actual Time 7:24 AM EDT 8:04 PM EDT
Civil Twilight 6:56 AM EDT 8:32 PM EDT
Nautical Twilight 6:23 AM EDT 9:06 PM EDT
Astronomical Twilight 5:49 AM EDT 9:40 PM EDT
Moon 7:46 AM EDT (3/31) 9:24 PM EDT (3/31)
Length of Visible Light 13h 36m
Length of Day
12h 40m
New Moon, 1% of the Moon is Illuminated
Mar 31
New Moon
Apr 7
First Quarter
Apr 15
Full
Apr 22
Last Quarter
Apr 29
New

Hourly Weather History & Observations

Time (EDT) Temp. Windchill Dew Point Humidity Pressure Visibility Wind Dir Wind Speed Gust Speed Precip Events Conditions
12:15 AM 34.0 °F - 27.0 °F 75% 30.11 in 10.0 mi Calm Calm - N/A   Clear
12:35 AM 32.0 °F 26.4 °F 27.3 °F 83% 30.11 in 10.0 mi SSE 5.8 mph - N/A   Clear
12:55 AM 33.6 °F 28.4 °F 26.8 °F 76% 30.11 in 10.0 mi SSE 5.8 mph - N/A   Clear
1:15 AM 31.5 °F 28.1 °F 27.5 °F 85% 30.11 in 10.0 mi SSE 3.5 mph - N/A   Clear
1:34 AM 32.5 °F 29.3 °F 26.6 °F 79% 30.12 in 10.0 mi SSE 3.5 mph - N/A   Clear
1:55 AM 33.3 °F - 26.8 °F 77% 30.12 in 10.0 mi Calm Calm - N/A   Clear
2:15 AM 34.9 °F - 26.2 °F 71% 30.13 in 10.0 mi Calm Calm - N/A   Clear
2:34 AM 31.6 °F 26.0 °F 26.4 °F 81% 30.13 in 10.0 mi SE 5.8 mph - N/A   Clear
2:55 AM 31.3 °F - 27.1 °F 85% 30.13 in 10.0 mi Calm Calm - N/A   Clear
3:15 AM 33.8 °F - 26.6 °F 75% 30.12 in 10.0 mi Calm Calm - N/A   Clear
3:34 AM 35.1 °F - 26.1 °F 70% 30.13 in 10.0 mi Calm Calm - N/A   Clear
3:55 AM 33.1 °F - 26.8 °F 78% 30.12 in 10.0 mi Calm Calm - N/A   Clear
4:15 AM 32.2 °F - 26.4 °F 79% 30.12 in 10.0 mi Calm Calm - N/A   Clear
4:34 AM 33.4 °F - 26.4 °F 75% 30.12 in 10.0 mi Calm Calm - N/A   Clear
4:55 AM 32.9 °F - 26.2 °F 76% 30.12 in 10.0 mi Calm Calm - N/A   Clear
5:15 AM 31.5 °F - 27.1 °F 84% 30.12 in 10.0 mi Calm Calm - N/A   Clear
5:34 AM 32.0 °F 28.7 °F 26.6 °F 80% 30.11 in 10.0 mi SE 3.5 mph - N/A   Clear
5:55 AM 32.0 °F 27.5 °F 27.1 °F 82% 30.12 in 10.0 mi SSE 4.6 mph - N/A   Clear
6:15 AM 34.3 °F 30.2 °F 27.5 °F 76% 30.12 in 10.0 mi SSE 4.6 mph - N/A   Clear
6:34 AM 34.0 °F - 27.5 °F 77% 30.13 in 10.0 mi Calm Calm - N/A   Clear
6:55 AM 35.2 °F - 27.5 °F 73% 30.14 in 10.0 mi Calm Calm - N/A   Clear
7:15 AM 36.3 °F - 28.0 °F 72% 30.14 in 10.0 mi Calm Calm - N/A   Clear
7:35 AM 33.1 °F - 27.3 °F 79% 30.14 in 10.0 mi Calm Calm - N/A   Clear
7:55 AM 32.2 °F - 27.5 °F 83% 30.15 in 10.0 mi Calm Calm - N/A   Clear
8:15 AM 32.0 °F 28.7 °F 28.8 °F 88% 30.15 in 7.0 mi ESE 3.5 mph - N/A   Clear
8:35 AM 34.3 °F - 30.4 °F 85% 30.15 in 7.0 mi Calm Calm - N/A   Clear
8:55 AM 40.1 °F 34.7 °F 31.1 °F 70% 30.14 in 10.0 mi SSE 8.1 mph - N/A   Clear
9:14 AM 41.5 °F 37.1 °F 31.1 °F 66% 30.14 in 10.0 mi SSE 6.9 mph - N/A   Clear
9:35 AM 43.3 °F 40.7 °F 32.0 °F 64% 30.15 in 10.0 mi SSE 4.6 mph - N/A   Clear
9:55 AM 46.2 °F 42.7 °F 31.6 °F 57% 30.14 in 10.0 mi South 6.9 mph - N/A   Clear
10:14 AM 48.0 °F - 31.3 °F 52% 30.14 in 10.0 mi South 9.2 mph - N/A   Clear
10:35 AM 49.1 °F - 32.0 °F 52% 30.14 in 10.0 mi SSE 6.9 mph - N/A   Clear
10:55 AM 50.5 °F - 31.6 °F 48% 30.14 in 10.0 mi SE 11.5 mph - N/A   Clear
11:14 AM 51.1 °F - 31.3 °F 47% 30.13 in 10.0 mi SSE 12.7 mph - N/A   Clear
11:35 AM 51.8 °F - 30.4 °F 44% 30.13 in 10.0 mi SSE 11.5 mph 18.4 mph N/A   Clear
11:55 AM 52.5 °F - 31.1 °F 44% 30.13 in 10.0 mi SSE 10.4 mph - N/A   Clear
12:14 PM 53.6 °F - 31.8 °F 44% 30.13 in 10.0 mi SSE 10.4 mph - N/A   Clear
12:35 PM 52.7 °F - 32.0 °F 45% 30.13 in 10.0 mi SSE 12.7 mph - N/A   Clear
12:55 PM 53.6 °F - 32.0 °F 44% 30.12 in 10.0 mi SSE 10.4 mph - N/A   Clear
1:14 PM 54.0 °F - 31.8 °F 43% 30.11 in 10.0 mi SSE 12.7 mph - N/A   Clear
1:35 PM 54.9 °F - 32.0 °F 42% 30.11 in 10.0 mi SE 13.8 mph 20.7 mph N/A   Clear
1:55 PM 56.3 °F - 32.2 °F 40% 30.10 in 10.0 mi SSE 13.8 mph 20.7 mph N/A   Clear
2:15 PM 56.7 °F - 30.9 °F 38% 30.09 in 10.0 mi SSE 15.0 mph 19.6 mph N/A   Clear
2:35 PM 56.3 °F - 30.6 °F 38% 30.09 in 10.0 mi SSE 12.7 mph 20.7 mph N/A   Clear
2:54 PM 57.4 °F - 31.3 °F 37% 30.08 in 10.0 mi SSE 11.5 mph 17.3 mph N/A   Clear
3:15 PM 57.9 °F - 31.3 °F 36% 30.07 in 10.0 mi SE 18.4 mph - N/A   Clear
3:35 PM 59.0 °F - 31.5 °F 35% 30.07 in 10.0 mi SSE 15.0 mph 21.9 mph N/A   Clear
3:54 PM 59.5 °F - 30.9 °F 34% 30.06 in 10.0 mi SSE 12.7 mph 21.9 mph N/A   Clear
4:15 PM 59.4 °F - 30.6 °F 34% 30.04 in 10.0 mi SE 17.3 mph 21.9 mph N/A   Clear
4:35 PM 59.9 °F - 30.6 °F 33% 30.03 in 10.0 mi SSE 15.0 mph 20.7 mph N/A   Clear
4:54 PM 60.4 °F - 29.8 °F 31% 30.02 in 10.0 mi SSE 16.1 mph 24.2 mph N/A   Clear
5:15 PM 60.4 °F - 30.2 °F 32% 30.01 in 10.0 mi SSE 13.8 mph 20.7 mph N/A   Clear
5:34 PM 60.4 °F - 30.6 °F 32% 30.00 in 10.0 mi SSE 12.7 mph 20.7 mph N/A   Clear
5:55 PM 59.9 °F - 30.2 °F 33% 29.99 in 10.0 mi SSE 13.8 mph - N/A   Clear
6:15 PM 59.0 °F - 29.8 °F 33% 29.99 in 10.0 mi SSE 13.8 mph 21.9 mph N/A   Clear
6:34 PM 58.6 °F - 30.4 °F 34% 29.97 in 10.0 mi SE 12.7 mph 18.4 mph N/A   Clear
6:55 PM 58.1 °F - 30.4 °F 35% 29.96 in 10.0 mi SE 12.7 mph 26.5 mph N/A   Clear
7:15 PM 57.4 °F - 30.6 °F 36% 29.96 in 10.0 mi SE 13.8 mph 20.7 mph N/A   Clear
7:34 PM 57.2 °F - 30.2 °F 36% 29.96 in 10.0 mi SSE 13.8 mph 17.3 mph N/A   Clear
7:55 PM 56.3 °F - 31.1 °F 38% 29.95 in 10.0 mi SSE 11.5 mph 17.3 mph N/A   Clear
8:15 PM 55.8 °F - 32.0 °F 41% 29.95 in 10.0 mi SE 13.8 mph 17.3 mph N/A   Clear
8:34 PM 55.4 °F - 32.0 °F 41% 29.94 in 10.0 mi SE 15.0 mph 20.7 mph N/A   Clear
8:55 PM 55.0 °F - 32.0 °F 42% 29.94 in 10.0 mi SSE 12.7 mph 21.9 mph N/A   Clear
9:15 PM 54.9 °F - 32.0 °F 42% 29.93 in 10.0 mi SE 13.8 mph 23.0 mph N/A   Clear
9:34 PM 54.9 °F - 32.0 °F 42% 29.93 in 10.0 mi SE 16.1 mph 25.3 mph N/A   Scattered Clouds
9:55 PM 54.5 °F - 32.0 °F 42% 29.92 in 10.0 mi SE 15.0 mph 23.0 mph N/A   Mostly Cloudy
10:15 PM 54.1 °F - 32.0 °F 43% 29.90 in 10.0 mi SE 15.0 mph 23.0 mph N/A   Overcast
10:35 PM 54.1 °F - 32.2 °F 43% 29.89 in 10.0 mi SE 17.3 mph 23.0 mph N/A   Mostly Cloudy
10:55 PM 53.8 °F - 33.1 °F 45% 29.91 in 10.0 mi South 15.0 mph 23.0 mph N/A   Mostly Cloudy
11:14 PM 52.7 °F - 33.8 °F 49% 29.91 in 10.0 mi SSE 15.0 mph 23.0 mph N/A   Scattered Clouds
11:35 PM 52.3 °F - 33.8 °F 49% 29.90 in 10.0 mi SSE 11.5 mph 18.4 mph N/A   Mostly Cloudy
11:55 PM 52.2 °F - 33.6 °F 49% 29.91 in 10.0 mi SSE 11.5 mph 17.3 mph N/A   Mostly Cloudy